Temperature
10 10 10 10 10 10 10 10 9 9 9 9 9 10 10 10 10 10 10 10 10 10 11 11 11 11 11 11 11 11 11 11 11 11 11 11 11 11
10 10 10 10 10 10 10 10 9 9 9 9 9 9 9 9 10 10 10 10 10 10 10 10 10 10 10 10 10 11 11 11 11 11 11 11 11 11
10 10 9 9 9 9 9 9 9 9 9 9 9 9 9 9 9 9 9 9 10 10 10 10 10 10 10 10 10 10 10 10 10 10 10 10 11 11
9 9 9 9 9 9 9 9 9 8 8 8 9 9 9 9 9 9 9 9 9 9 9 9 9 9 9 10 10 10 10 10 10 10 10 10 10 10
9 9 9 9 9 9 9 8 8 8 8 8 8 8 8 8 8 8 8 8 9 9 9 9 9 9 9 9 9 9 9 9 9 10 10 10 10 10
8 8 8 8 8 8 8 8 8 8 8 8 8 8 8 8 8 8 8 8 8 8 8 8 9 9 9 9 9 9 9 9 9 9 9 9 10 10
8 8 8 8 8 8 8 8 8 7 7 7 7 8 7 7 7 7 7 7 8 8 8 8 8 8 8 8 8 8 8 8 9 9 9 9 9 9
8 7 7 7 7 7 7 7 7 7 7 7 7 7 7 7 7 7 7 7 7 7 7 8 8 8 8 8 8 8 8 8 8 8 8 8 9 9
7 7 7 7 7 7 7 7 7 7 7 7 7 7 7 7 7 6 6 6 6 6 7 7 7 7 8 8 7 7 8 8 8 8 8 8 8 8
7 7 7 7 7 7 6 6 6 6 6 6 6 6 6 6 6 6 6 6 6 6 6 6 7 7 7 7 7 7 7 7 7 7 8 8 8 8
6 6 6 6 6 6 6 6 6 6 6 6 6 6 6 6 6 6 6 6 6 6 6 6 6 6 7 7 7 7 7 7 7 7 7 7 7 8
6 6 6 6 6 6 6 6 6 6 6 6 6 6 6 6 6 6 6 6 6 5 5 5 6 6 6 6 6 6 7 7 7 7 7 7 7 7
6 6 6 6 6 6 5 5 5 5 5 5 5 5 5 5 5 5 5 5 5 5 5 5 5 5 5 5 6 6 6 6 6 6 6 6 6 6
6 5 5 5 5 5 5 5 5 5 5 5 5 5 5 5 5 5 5 5 5 5 5 5 5 5 5 5 5 6 6 6 6 6 6 6 6 6
5 5 5 5 5 5 5 5 5 5 4 4 4 4 4 4 4 4 4 4 4 4 4 4 4 4 4 4 5 5 5 5 5 5 6 6 6 6
5 5 5 5 4 4 4 4 4 4 4 4 4 4 4 4 4 4 4 4 4 4 4 4 4 4 4 4 4 5 5 5 5 5 5 5 5 5
5 4 4 4 4 4 4 4 4 4 4 4 3 3 3 3 3 3 3 4 4 4 4 4 4 4 4 4 4 4 4 4 5 5 5 5 5 5
4 4 4 4 4 4 4 4 4 4 3 3 3 3 3 3 3 3 3 3 3 3 3 3 3 4 4 4 4 4 4 4 4 4 4 4 5 5
4 4 4 3 3 3 3 3 3 3 3 3 3 3 3 3 3 3 3 3 3 3 3 3 3 3 3 3 3 3 3 4 4 4 4 4 4 4
3 3 3 3 3 3 3 3 3 3 3 3 3 3 2 2 2 2 2 2 2 2 2 2 2 2 2 2 2 3 3 3 3 3 3 4 4 4
3 3 3 3 3 3 3 3 2 2 2 2 2 2 2 2 2 2 2 2 2 2 2 2 2 2 2 2 2 2 3 3 3 3 3 3 3 4
3 3 2 2 2 2 2 2 2 2 2 2 2 2 2 2 2 2 1 1 2 2 2 2 2 2 2 2 2 2 2 3 3 3 3 3 3 3
2 2 2 2 2 2 2 2 2 2 2 2 2 2 1 1 1 1 1 1 1 1 1 1 1 1 1 1 1 2 2 2 2 2 3 2 2 2
Wind_Speed
0 0 0 0 0 0 1 2 2 1 2 2 2 3 4 3 5 5 5 5 6 6 6 5 6 5 5 5 5 5 5 6 6 6 5 4 3 3
0 1 0 0 0 0 1 1 1 2 2 2 2 3 4 4 5 4 4 5 6 6 6 5 5 6 5 5 5 6 5 6 6 6 5 4 4 3
1 0 0 0 0 0 0 1 1 1 2 2 2 2 2 3 4 4 4 4 5 6 6 5 5 5 5 5 5 5 5 5 5 6 6 5 4 4
1 0 1 0 0 0 0 0 1 1 2 2 2 2 2 2 2 2 3 4 4 5 6 5 5 5 5 4 4 4 5 5 5 5 6 5 4 4
1 1 1 1 1 1 1 1 1 1 1 1 2 1 2 2 3 3 3 3 4 5 5 5 5 4 4 4 4 4 4 4 5 5 6 6 5 4
1 1 1 2 2 2 1 1 1 0 0 0 1 1 1 2 1 2 3 3 3 4 5 4 5 4 4 4 4 3 3 4 4 5 5 6 5 4
1 1 2 2 2 1 1 2 2 1 1 0 1 1 2 1 1 1 2 2 3 2 3 3 3 3 4 4 4 4 3 3 4 5 5 5 5 4
2 2 2 2 1 1 2 1 2 2 2 1 1 1 2 2 2 2 1 2 3 2 2 3 2 3 3 3 5 5 4 4 4 4 5 5 5 4
2 2 2 2 1 0 1 1 1 1 2 3 3 3 3 3 2 2 2 2 3 2 1 3 2 3 4 4 5 4 4 4 4 4 5 5 5 4
3 3 3 3 2 2 1 0 1 2 3 2 3 4 3 3 4 3 3 2 2 1 0 2 3 3 4 4 5 4 4 4 4 4 5 6 5 5
2 3 3 3 3 3 2 2 2 3 2 2 3 3 3 2 1 1 0 0 2 2 1 1 3 3 3 3 4 4 4 5 5 5 5 5 5 5
2 3 4 4 3 3 3 3 2 3 2 2 2 3 2 1 1 2 2 2 2 3 2 1 2 1 2 3 3 4 4 5 5 5 5 5 5 3
3 3 4 4 4 4 4 4 4 3 2 2 1 2 2 1 2 2 2 2 2 3 2 1 1 1 2 3 3 3 3 3 4 4 5 5 4 3
3 3 4 4 3 4 3 3 3 1 1 1 1 1 2 2 3 3 2 2 3 4 4 3 2 2 2 2 3 3 3 3 3 3 4 5 5 4
3 4 4 3 2 2 2 2 2 1 1 1 2 2 2 3 2 2 2 2 3 3 1 2 2 2 2 3 3 2 2 3 3 3 3 3 3 3
1 2 1 0 0 1 1 0 1 2 2 2 3 2 1 1 1 1 1 1 2 3 3 3 2 3 3 4 3 3 3 2 3 4 4 3 4 4
1 1 1 1 0 0 0 1 1 1 1 2 1 2 2 1 2 1 1 1 1 2 3 3 3 2 3 3 3 4 3 3 3 3 3 3 4 4
3 1 0 1 1 1 1 2 1 2 2 2 2 2 2 2 2 2 1 1 2 3 3 2 1 2 2 2 4 4 3 3 3 3 2 3 4 4
1 1 1 1 1 1 2 2 2 2 2 2 2 2 2 2 2 2 2 2 3 3 3 2 1 1 2 4 4 3 3 3 2 2 3 3 4 4
0 0 1 1 1 2 2 2 2 2 1 2 2 2 2 2 2 2 2 3 3 3 3 2 2 3 4 5 4 4 5 4 3 3 3 3 3 4
1 1 1 1 2 2 2 2 2 2 2 2 2 2 2 2 2 2 3 4 4 3 4 4 4 5 3 1 2 3 3 5 4 4 3 3 3 3
2 2 2 2 2 2 2 2 2 2 2 2 2 2 2 2 3 3 3 3 3 4 4 4 2 1 1 3 4 5 4 4 5 6 5 4 3 3
2 2 2 3 2 2 2 3 3 3 3 3 3 3 3 3 3 3 3 4 3 4 3 3 2 1 3 3 4 4 4 5 3 3 4 6 6 6
Wind_Direction
68 101 148 235 136 167 155 159 160 230 282 288 305 321 336 342 349 357 355 358 8 9 12 14 13 16 22 22 22 22 21 20 23 22 15 3 356 354
90 82 50 339 356 70 158 150 160 178 230 269 273 303 328 350 351 355 348 353 1 3 3 3 13 22 18 21 25 24 23 21 21 13 6 0 3 354
359 105 290 111 64 1 83 109 145 162 219 277 283 307 330 348 352 355 352 354 348 356 360 7 11 13 9 12 21 20 19 14 11 6 359 0 2 354
283 231 261 170 125 249 143 179 209 202 199 257 297 316 315 322 340 348 358 355 349 349 354 0 3 4 4 360 6 12 17 14 8 4 359 354 352 349
226 230 254 197 229 242 216 225 239 257 201 211 277 296 312 334 342 338 348 353 349 344 343 348 350 350 351 352 352 360 5 7 7 2 356 352 346 346
241 242 241 224 224 221 218 226 208 153 134 155 294 312 314 322 349 330 330 336 332 343 337 338 343 343 339 340 340 345 349 354 358 360 355 350 345 338
269 273 257 238 237 224 244 210 179 176 183 204 305 336 326 332 307 284 297 310 309 330 327 325 327 331 327 326 329 327 332 340 349 353 353 349 341 330
242 273 271 273 271 281 295 230 186 187 194 201 255 268 273 278 290 280 281 322 301 316 322 310 325 308 310 313 320 322 318 326 329 335 337 338 334 320
232 247 262 268 272 208 319 358 304 247 198 193 210 240 244 245 247 271 266 261 261 274 296 285 301 291 296 304 306 313 323 328 330 328 327 325 324 312
237 232 233 247 217 177 178 299 310 285 252 225 221 239 242 222 214 222 238 265 293 286 197 264 279 278 298 298 303 310 322 322 319 319 326 326 320 310
243 239 232 232 223 196 180 209 276 299 297 266 260 271 270 249 181 116 73 309 289 274 271 258 269 282 286 284 294 297 303 310 306 307 313 318 321 313
252 256 248 241 232 202 191 196 227 262 283 301 316 324 332 305 226 190 197 216 264 267 261 242 257 289 294 283 289 310 305 297 294 293 299 309 319 313
231 249 251 238 237 228 218 214 230 231 245 244 274 313 327 327 303 295 230 214 226 252 242 193 216 231 246 283 296 302 310 308 303 294 291 295 304 305
229 239 250 244 236 234 229 229 220 213 212 229 251 284 291 291 287 293 287 273 249 247 237 203 206 216 234 264 277 296 298 304 302 296 293 299 296 290
242 249 249 237 230 247 252 235 204 177 186 232 249 252 258 264 282 305 323 326 329 321 271 233 219 225 226 241 262 280 291 289 297 293 292 290 284 292
257 259 293 153 193 264 275 238 210 204 203 226 246 254 266 274 275 282 283 295 319 315 326 316 259 217 231 253 255 268 274 277 289 289 284 285 290 276
123 75 57 63 57 351 333 286 248 229 241 248 255 260 257 263 279 277 262 267 267 277 302 325 332 289 244 239 256 262 266 274 277 277 284 286 282 278
101 105 191 222 232 251 262 272 269 256 251 247 243 246 245 246 262 279 267 254 265 267 270 283 319 338 322 282 240 252 265 270 281 282 275 271 282 286
105 173 227 245 254 253 253 250 257 266 259 249 253 251 254 258 259 265 268 273 272 267 266 258 255 255 273 289 288 258 260 277 285 286 278 264 267 279
21 256 252 254 260 259 259 261 263 276 258 249 254 256 258 261 267 264 260 263 268 270 271 266 252 244 241 255 267 282 271 254 253 265 276 280 279 287
262 281 269 257 251 248 253 256 256 255 259 251 254 258 254 250 263 267 264 268 266 265 261 259 258 262 258 255 272 286 286 273 261 253 258 272 286 295
242 249 257 257 251 246 245 246 253 254 254 252 251 252 252 247 252 258 261 262 260 262 268 272 281 266 222 236 261 273 290 304 294 283 264 251 238 246
247 250 253 253 255 253 245 243 245 248 245 247 246 244 245 252 254 252 254 254 261 268 275 283 287 250 241 240 258 271 281 290 294 289 291 289 270 274
Height
1523 1523 1523 1523 1522 1522 1523 1523 1523 1522 1521 1521 1521 1520 1520 1519 1519 1518 1517 1516 1516 1515 1514 1514 1513 1513 1512 1512 1512 1511 1510 1510 1509 1509 1509 1509 1508 1509
1521 1521 1521 1521 1521 1521 1521 1520 1520 1520 1519 1519 1519 1519 1518 1518 1517 1516 1515 1515 1514 1513 1513 1512 1512 1511 1511 1510 1510 1509 1509 1508 1507 1507 1507 1507 1506 1506
1519 1519 1519 1519 1518 1518 1518 1518 1518 1518 1517 1517 1517 1517 1516 1516 1515 1514 1514 1513 1512 1512 1511 1510 1510 1509 1509 1509 1508 1508 1507 1507 1506 1505 1505 1504 1504 1504
1517 1516 1516 1516 1516 1516 1516 1515 1515 1515 1515 1514 1514 1514 1514 1514 1513 1512 1511 1511 1510 1510 1509 1509 1508 1508 1507 1507 1506 1506 1505 1505 1504 1504 1503 1502 1502 1502
1514 1514 1513 1513 1513 1513 1513 1513 1513 1513 1513 1513 1512 1512 1512 1511 1510 1510 1509 1508 1508 1507 1507 1506 1506 1506 1505 1505 1505 1504 1504 1503 1503 1502 1501 1500 1500 1500
1512 1511 1511 1511 1510 1510 1510 1510 1510 1510 1510 1510 1510 1509 1509 1509 1508 1507 1506 1506 1505 1505 1504 1504 1504 1504 1503 1503 1503 1502 1502 1502 1501 1500 1499 1498 1498 1498
1509 1508 1508 1508 1508 1508 1508 1508 1508 1508 1507 1507 1507 1506 1506 1506 1505 1505 1504 1503 1503 1503 1502 1502 1501 1501 1501 1501 1500 1500 1500 1499 1499 1498 1497 1496 1496 1495
1505 1505 1505 1505 1505 1505 1505 1505 1505 1505 1504 1504 1504 1504 1503 1503 1503 1503 1502 1501 1500 1501 1500 1499 1499 1498 1498 1498 1498 1498 1497 1497 1496 1495 1494 1493 1493 1493
1502 1502 1502 1502 1502 1502 1502 1502 1502 1501 1502 1502 1501 1501 1501 1501 1501 1500 1500 1499 1498 1498 1497 1496 1496 1496 1496 1495 1495 1495 1494 1494 1493 1492 1492 1491 1490 1489
1499 1499 1499 1499 1499 1499 1499 1499 1498 1498 1498 1498 1499 1499 1499 1498 1498 1498 1497 1497 1496 1495 1495 1494 1493 1493 1493 1492 1492 1491 1491 1490 1490 1489 1489 1488 1487 1486
1495 1495 1495 1496 1496 1496 1496 1495 1495 1495 1495 1495 1495 1495 1495 1495 1495 1495 1494 1494 1492 1492 1492 1491 1490 1490 1489 1489 1488 1488 1488 1487 1487 1486 1485 1485 1484 1483
1491 1492 1492 1492 1492 1492 1492 1492 1492 1491 1492 1492 1492 1492 1492 1492 1492 1491 1491 1490 1490 1489 1488 1488 1487 1487 1486 1485 1485 1485 1484 1484 1484 1483 1482 1482 1481 1480
1488 1488 1488 1488 1489 1489 1489 1489 1489 1489 1489 1489 1488 1488 1488 1488 1488 1488 1488 1487 1487 1486 1486 1485 1484 1484 1484 1482 1481 1481 1481 1480 1480 1479 1479 1479 1478 1477
1484 1484 1485 1485 1485 1485 1485 1485 1486 1486 1485 1485 1485 1484 1484 1484 1484 1485 1484 1484 1484 1483 1483 1483 1482 1481 1481 1479 1478 1477 1477 1477 1476 1476 1476 1475 1475 1474
1481 1481 1482 1482 1482 1482 1482 1482 1482 1482 1482 1482 1481 1481 1481 1481 1481 1481 1481 1481 1480 1480 1479 1479 1479 1478 1478 1476 1475 1474 1474 1473 1473 1472 1472 1472 1471 1470
1478 1478 1479 1479 1479 1479 1479 1479 1479 1479 1479 1479 1478 1478 1478 1478 1477 1477 1477 1476 1476 1475 1476 1475 1475 1475 1474 1473 1472 1471 1471 1470 1469 1469 1469 1468 1468 1467
1476 1476 1476 1476 1476 1476 1475 1476 1476 1476 1476 1475 1475 1474 1474 1474 1473 1473 1473 1473 1472 1471 1471 1471 1471 1471 1470 1469 1469 1468 1467 1467 1466 1466 1465 1464 1464 1464
1473 1473 1473 1473 1473 1473 1473 1472 1472 1472 1472 1472 1472 1472 1471 1470 1470 1470 1470 1469 1468 1468 1467 1467 1467 1466 1466 1465 1466 1464 1464 1463 1463 1462 1462 1460 1459 1460
1471 1470 1470 1470 1470 1470 1470 1470 1469 1469 1469 1469 1468 1468 1468 1467 1466 1466 1466 1465 1465 1464 1464 1464 1463 1462 1461 1460 1460 1461 1460 1459 1459 1458 1458 1457 1456 1456
1468 1468 1468 1468 1468 1468 1467 1467 1466 1466 1466 1465 1465 1464 1464 1463 1462 1462 1461 1461 1460 1460 1460 1459 1459 1459 1458 1458 1457 1457 1457 1456 1455 1455 1454 1453 1453 1453
1466 1466 1466 1465 1465 1465 1464 1464 1463 1463 1462 1462 1461 1461 1460 1459 1458 1458 1458 1457 1457 1456 1455 1455 1455 1456 1455 1455 1454 1453 1453 1454 1453 1452 1451 1450 1448 1448
1464 1464 1463 1463 1462 1462 1461 1461 1460 1459 1458 1458 1457 1457 1456 1455 1454 1454 1454 1453 1453 1452 1452 1452 1452 1452 1452 1451 1450 1449 1449 1449 1449 1449 1448 1447 1445 1444
1461 1461 1461 1460 1459 1459 1458 1457 1456 1455 1454 1454 1453 1452 1452 1451 1450 1450 1450 1449 1449 1448 1448 1448 1448 1448 1447 1447 1447 1446 1445 1445 1444 1444 1444 1443 1443 1442